| time (UTC) | temp C | wind direction | speed KPH | gust KPH | rain 1hr cm | rain 24hr cm | rain mn cm | humidity % | barometer mb |
| 20260505032404 | 10 | 323 | 0.0 | 9.7 | 0.00 | 0.00 | 0.00 | 77 | 1013.6 |
| 20260505032203 | 10 | 324 | 0.0 | 6.4 | 0.00 | 0.00 | 0.00 | 76 | 1013.6 |
| 20260505032003 | 10 | 313 | 1.6 | 8.0 | 0.00 | 0.00 | 0.00 | 76 | 1013.6 |
| 20260505031803 | 10 | 310 | 0.0 | 8.0 | 0.00 | 0.00 | 0.00 | 76 | 1013.5 |
| 20260505031604 | 10 | 320 | 1.6 | 8.0 | 0.00 | 0.00 | 0.00 | 76 | 1013.5 |
| 20260505031403 | 10 | 319 | 1.6 | 8.0 | 0.00 | 0.00 | 0.00 | 76 | 1013.5 |
| 20260505031203 | 10 | 318 | 1.6 | 8.0 | 0.00 | 0.00 | 0.00 | 76 | 1013.5 |
| 20260505031003 | 10 | 319 | 1.6 | 6.4 | 0.00 | 0.00 | 0.00 | 76 | 1013.5 |
| 20260505030825 | 10 | 318 | 1.6 | 6.4 | 0.00 | 0.00 | 0.00 | 76 | 1013.5 |
| 20260505030603 | 10 | 304 | 0.0 | 6.4 | 0.00 | 0.00 | 0.00 | 76 | 1013.5 |
| 20260505030404 | 10 | 304 | 0.0 | 6.4 | 0.00 | 0.00 | 0.00 | 76 | 1013.5 |
| 20260505030203 | 10 | 304 | 0.0 | 6.4 | 0.00 | 0.00 | 0.00 | 76 | 1013.4 |
| 20260505030004 | 10 | 308 | 0.0 | 3.2 | 0.00 | 0.00 | 0.00 | 76 | 1013.4 |
| 20260505025803 | 10 | 302 | 0.0 | 3.2 | 0.00 | 0.00 | 0.00 | 76 | 1013.4 |
| 20260505025604 | 10 | 284 | 0.0 | 1.6 | 0.00 | 0.00 | 0.00 | 76 | 1013.4 |
| 20260505025424 | 10 | 284 | 0.0 | 1.6 | 0.00 | 0.00 | 0.00 | 76 | 1013.4 |
| 20260505025203 | 10 | 281 | 0.0 | 6.4 | 0.00 | 0.00 | 0.00 | 76 | 1013.4 |
| 20260505025025 | 10 | 300 | 1.6 | 11.3 | 0.00 | 0.00 | 0.00 | 76 | 1013.3 |
| 20260505024803 | 10 | 304 | 1.6 | 11.3 | 0.00 | 0.00 | 0.00 | 76 | 1013.3 |
| 20260505024604 | 10 | 305 | 1.6 | 11.3 | 0.00 | 0.00 | 0.00 | 76 | 1013.3 |
| 20260505024403 | 10 | 306 | 1.6 | 11.3 | 0.00 | 0.00 | 0.00 | 76 | 1013.3 |
| 20260505024224 | 10 | 308 | 1.6 | 11.3 | 0.00 | 0.00 | 0.00 | 76 | 1013.4 |
| 20260505024003 | 10 | 300 | 1.6 | 11.3 | 0.00 | 0.00 | 0.00 | 76 | 1013.4 |
| 20260505023824 | 10 | 292 | 1.6 | 11.3 | 0.00 | 0.00 | 0.00 | 76 | 1013.4 |
| 20260505023603 | 10 | 288 | 1.6 | 11.3 | 0.00 | 0.00 | 0.00 | 76 | 1013.4 |
| 20260505023404 | 10 | 296 | 1.6 | 11.3 | 0.00 | 0.00 | 0.00 | 76 | 1013.3 |
| 20260505023204 | 10 | 296 | 1.6 | 11.3 | 0.00 | 0.00 | 0.00 | 76 | 1013.3 |
| 20260505023004 | 10 | 300 | 1.6 | 11.3 | 0.00 | 0.00 | 0.00 | 76 | 1013.3 |
| 20260505022804 | 10 | 304 | 1.6 | 12.9 | 0.00 | 0.00 | 0.00 | 75 | 1013.4 |
| 20260505022604 | 10 | 305 | 1.6 | 12.9 | 0.00 | 0.00 | 0.00 | 75 | 1013.4 |
| 20260505022424 | 10 | 305 | 1.6 | 12.9 | 0.00 | 0.00 | 0.00 | 75 | 1013.3 |
| 20260505022203 | 10 | 309 | 1.6 | 12.9 | 0.00 | 0.00 | 0.00 | 75 | 1013.2 |
| 20260505022004 | 10 | 308 | 1.6 | 12.9 | 0.00 | 0.00 | 0.00 | 75 | 1013.3 |
| 20260505021804 | 10 | 311 | 1.6 | 11.3 | 0.00 | 0.00 | 0.00 | 75 | 1013.3 |
| 20260505021604 | 10 | 310 | 1.6 | 11.3 | 0.00 | 0.00 | 0.00 | 75 | 1013.3 |
| 20260505021403 | 10 | 312 | 1.6 | 11.3 | 0.00 | 0.00 | 0.00 | 75 | 1013.3 |
| 20260505021203 | 11 | 313 | 1.6 | 8.0 | 0.00 | 0.00 | 0.00 | 75 | 1013.2 |
| 20260505021003 | 11 | 317 | 1.6 | 9.7 | 0.00 | 0.00 | 0.00 | 75 | 1013.1 |
| 20260505020803 | 11 | 316 | 1.6 | 11.3 | 0.00 | 0.00 | 0.00 | 75 | 1013.2 |
| 20260505020603 | 11 | 320 | 1.6 | 11.3 | 0.00 | 0.00 | 0.00 | 75 | 1013.2 |
| 20260505020404 | 11 | 316 | 1.6 | 11.3 | 0.00 | 0.00 | 0.00 | 75 | 1013.1 |
| 20260505020224 | 11 | 313 | 1.6 | 11.3 | 0.00 | 0.00 | 0.00 | 75 | 1013.1 |
| 20260505020004 | 11 | 311 | 1.6 | 11.3 | 0.00 | 0.00 | 0.00 | 75 | 1013.2 |
| 20260505015804 | 11 | 308 | 1.6 | 11.3 | 0.00 | 0.00 | 0.00 | 75 | 1013.1 |
| 20260505015604 | 11 | 302 | 1.6 | 11.3 | 0.00 | 0.00 | 0.00 | 74 | 1013.2 |
| 20260505015403 | 11 | 298 | 3.2 | 12.9 | 0.00 | 0.00 | 0.00 | 74 | 1013.1 |
| 20260505015224 | 11 | 294 | 3.2 | 14.5 | 0.00 | 0.00 | 0.00 | 74 | 1013.1 |
| 20260505015003 | 11 | 291 | 3.2 | 14.5 | 0.00 | 0.00 | 0.00 | 74 | 1013.1 |
| 20260505014803 | 11 | 292 | 3.2 | 14.5 | 0.00 | 0.00 | 0.00 | 74 | 1013.1 |
| 20260505014603 | 11 | 296 | 4.8 | 14.5 | 0.00 | 0.00 | 0.00 | 73 | 1013.2 |
| 20260505014404 | 11 | 300 | 3.2 | 14.5 | 0.00 | 0.00 | 0.00 | 73 | 1013.2 |
| 20260505014203 | 11 | 306 | 3.2 | 12.9 | 0.00 | 0.00 | 0.00 | 73 | 1013.2 |
| 20260505014004 | 11 | 303 | 3.2 | 16.1 | 0.00 | 0.00 | 0.00 | 72 | 1013.2 |
| 20260505013803 | 11 | 301 | 4.8 | 16.1 | 0.00 | 0.00 | 0.00 | 72 | 1013.2 |
| 20260505013603 | 11 | 298 | 4.8 | 16.1 | 0.00 | 0.00 | 0.00 | 72 | 1013.2 |
| 20260505013403 | 11 | 295 | 4.8 | 16.1 | 0.00 | 0.00 | 0.00 | 71 | 1013.2 |
| 20260505013204 | 11 | 293 | 6.4 | 16.1 | 0.00 | 0.00 | 0.00 | 71 | 1013.2 |
| 20260505013004 | 11 | 293 | 6.4 | 16.1 | 0.00 | 0.00 | 0.00 | 71 | 1013.2 |
| 20260505012803 | 11 | 291 | 4.8 | 16.1 | 0.00 | 0.00 | 0.00 | 70 | 1013.2 |
| 20260505012603 | 11 | 291 | 4.8 | 16.1 | 0.00 | 0.00 | 0.00 | 70 | 1013.3 |
| 20260505012403 | 12 | 292 | 4.8 | 16.1 | 0.00 | 0.00 | 0.00 | 70 | 1013.3 |
| 20260505012203 | 12 | 294 | 4.8 | 11.3 | 0.00 | 0.00 | 0.00 | 70 | 1013.3 |
| 20260505012025 | 12 | 291 | 4.8 | 16.1 | 0.00 | 0.00 | 0.00 | 69 | 1013.2 |
| 20260505011804 | 12 | 293 | 6.4 | 16.1 | 0.00 | 0.00 | 0.00 | 68 | 1013.2 |
| 20260505011604 | 12 | 292 | 6.4 | 16.1 | 0.00 | 0.00 | 0.00 | 68 | 1013.1 |
| 20260505011404 | 12 | 292 | 6.4 | 16.1 | 0.00 | 0.00 | 0.00 | 68 | 1013.1 |
| 20260505011203 | 12 | 292 | 8.0 | 17.7 | 0.00 | 0.00 | 0.00 | 68 | 1013.1 |
| 20260505011003 | 12 | 293 | 8.0 | 17.7 | 0.00 | 0.00 | 0.00 | 68 | 1013.1 |
| 20260505010803 | 12 | 293 | 8.0 | 17.7 | 0.00 | 0.00 | 0.00 | 68 | 1013.1 |
| 20260505010603 | 12 | 291 | 8.0 | 17.7 | 0.00 | 0.00 | 0.00 | 67 | 1013.2 |
| 20260505010403 | 12 | 291 | 8.0 | 17.7 | 0.00 | 0.00 | 0.00 | 67 | 1013.2 |
| 20260505010224 | 13 | 291 | 6.4 | 17.7 | 0.00 | 0.00 | 0.00 | 67 | 1013.2 |
| 20260505010024 | 12 | 291 | 6.4 | 17.7 | 0.00 | 0.00 | 0.00 | 68 | 1013.2 |
| 20260505005824 | 12 | 290 | 6.4 | 17.7 | 0.00 | 0.00 | 0.00 | 69 | 1013.2 |
| 20260505005603 | 12 | 294 | 6.4 | 14.5 | 0.00 | 0.00 | 0.00 | 70 | 1013.1 |
| 20260505005404 | 12 | 293 | 6.4 | 16.1 | 0.00 | 0.00 | 0.00 | 69 | 1013.2 |
| 20260505005203 | 12 | 291 | 4.8 | 16.1 | 0.00 | 0.00 | 0.00 | 69 | 1013.1 |
| 20260505005024 | 12 | 290 | 4.8 | 16.1 | 0.00 | 0.00 | 0.00 | 69 | 1013.1 |
| 20260505004803 | 12 | 292 | 4.8 | 16.1 | 0.00 | 0.00 | 0.00 | 69 | 1013.2 |
| 20260505004603 | 12 | 291 | 3.2 | 16.1 | 0.00 | 0.00 | 0.00 | 68 | 1013.1 |
| 20260505004403 | 12 | 292 | 3.2 | 11.3 | 0.00 | 0.00 | 0.00 | 67 | 1013.1 |
| 20260505004204 | 12 | 291 | 3.2 | 9.7 | 0.00 | 0.00 | 0.00 | 67 | 1013.1 |
| 20260505004003 | 12 | 289 | 4.8 | 12.9 | 0.00 | 0.00 | 0.00 | 67 | 1013.1 |
| 20260505003803 | 12 | 291 | 4.8 | 16.1 | 0.00 | 0.00 | 0.00 | 67 | 1013.2 |
| 20260505003604 | 12 | 292 | 4.8 | 16.1 | 0.00 | 0.00 | 0.00 | 67 | 1013.2 |
| 20260505003403 | 12 | 294 | 4.8 | 16.1 | 0.00 | 0.00 | 0.00 | 67 | 1013.2 |
| 20260505003203 | 12 | 295 | 4.8 | 16.1 | 0.00 | 0.00 | 0.00 | 66 | 1013.3 |
| 20260505003004 | 12 | 298 | 4.8 | 16.1 | 0.00 | 0.00 | 0.00 | 66 | 1013.2 |
| 20260505002824 | 12 | 299 | 3.2 | 9.7 | 0.00 | 0.00 | 0.00 | 66 | 1013.3 |
| 20260505002603 | 12 | 301 | 4.8 | 9.7 | 0.00 | 0.00 | 0.00 | 65 | 1013.2 |
| 20260505002403 | 12 | 302 | 4.8 | 11.3 | 0.00 | 0.00 | 0.00 | 64 | 1013.2 |
| 20260505002203 | 12 | 304 | 4.8 | 12.9 | 0.00 | 0.00 | 0.00 | 63 | 1013.2 |
| 20260505002004 | 12 | 307 | 4.8 | 12.9 | 0.00 | 0.00 | 0.00 | 63 | 1013.3 |
| 20260505001803 | 12 | 302 | 4.8 | 12.9 | 0.00 | 0.00 | 0.00 | 62 | 1013.3 |
| 20260505001403 | 12 | 294 | 4.8 | 12.9 | 0.00 | 0.00 | 0.00 | 62 | 1013.3 |
| 20260505001204 | 13 | 293 | 4.8 | 12.9 | 0.00 | 0.00 | 0.00 | 61 | 1013.3 |
| 20260505001003 | 13 | 291 | 4.8 | 12.9 | 0.00 | 0.00 | 0.00 | 60 | 1013.2 |
| 20260505000803 | 13 | 296 | 4.8 | 12.9 | 0.00 | 0.00 | 0.00 | 60 | 1013.2 |
| 20260505000603 | 13 | 301 | 4.8 | 11.3 | 0.00 | 0.00 | 0.00 | 60 | 1013.1 |
| 20260505000405 | 13 | 308 | 4.8 | 11.3 | 0.00 | 0.00 | 0.00 | 60 | 1013.1 |
| 20260505000204 | 13 | 310 | 4.8 | 12.9 | 0.00 | 0.00 | 0.00 | 59 | 1013.1 |
| 20260505000004 | 13 | 313 | 4.8 | 12.9 | 0.00 | 0.00 | 0.00 | 59 | 1013.2 |
| 20260504235803 | 13 | 316 | 4.8 | 12.9 | 0.00 | 0.00 | 0.00 | 59 | 1013.1 |
| 20260504235604 | 13 | 318 | 4.8 | 12.9 | 0.00 | 0.00 | 0.00 | 59 | 1013.1 |
| 20260504235424 | 13 | 318 | 4.8 | 12.9 | 0.00 | 0.00 | 0.00 | 59 | 1013.0 |
| 20260504235203 | 13 | 322 | 4.8 | 12.9 | 0.00 | 0.00 | 0.00 | 59 | 1013.0 |
| 20260504235003 | 13 | 328 | 3.2 | 12.9 | 0.00 | 0.00 | 0.00 | 59 | 1013.0 |
| 20260504234803 | 13 | 319 | 3.2 | 12.9 | 0.00 | 0.00 | 0.00 | 60 | 1013.0 |
| 20260504234603 | 13 | 309 | 4.8 | 14.5 | 0.00 | 0.00 | 0.00 | 59 | 1013.0 |
| 20260504234403 | 13 | 303 | 4.8 | 14.5 | 0.00 | 0.00 | 0.00 | 59 | 1013.0 |
| 20260504234203 | 13 | 305 | 4.8 | 14.5 | 0.00 | 0.00 | 0.00 | 59 | 1013.0 |
| 20260504234003 | 13 | 303 | 4.8 | 14.5 | 0.00 | 0.00 | 0.00 | 58 | 1013.0 |
| 20260504233824 | 13 | 307 | 4.8 | 14.5 | 0.00 | 0.00 | 0.00 | 58 | 1013.0 |
| 20260504233603 | 13 | 322 | 4.8 | 14.5 | 0.00 | 0.00 | 0.00 | 58 | 1012.9 |
| 20260504233424 | 13 | 333 | 3.2 | 12.9 | 0.00 | 0.00 | 0.00 | 58 | 1012.9 |
| 20260504233204 | 13 | 330 | 3.2 | 9.7 | 0.00 | 0.00 | 0.00 | 58 | 1012.9 |
| 20260504233003 | 13 | 333 | 3.2 | 9.7 | 0.00 | 0.00 | 0.00 | 57 | 1012.9 |
| 20260504232804 | 13 | 330 | 3.2 | 12.9 | 0.00 | 0.00 | 0.00 | 57 | 1012.9 |
| 20260504232624 | 13 | 324 | 3.2 | 12.9 | 0.00 | 0.00 | 0.00 | 56 | 1012.8 |
| 20260504232424 | 13 | 323 | 3.2 | 12.9 | 0.00 | 0.00 | 0.00 | 57 | 1012.9 |
| 20260504232203 | 13 | 325 | 3.2 | 12.9 | 0.00 | 0.00 | 0.00 | 57 | 1012.9 |
| 20260504232004 | 13 | 324 | 3.2 | 12.9 | 0.00 | 0.00 | 0.00 | 56 | 1012.9 |
| 20260504231803 | 13 | 325 | 3.2 | 9.7 | 0.00 | 0.00 | 0.00 | 57 | 1012.8 |
| 20260504231603 | 13 | 331 | 3.2 | 9.7 | 0.00 | 0.00 | 0.00 | 57 | 1012.8 |
| 20260504231403 | 13 | 319 | 3.2 | 9.7 | 0.00 | 0.00 | 0.00 | 56 | 1012.9 |
| 20260504231203 | 13 | 316 | 3.2 | 9.7 | 0.00 | 0.00 | 0.00 | 56 | 1012.9 |
| 20260504231003 | 13 | 303 | 3.2 | 9.7 | 0.00 | 0.00 | 0.00 | 57 | 1012.9 |
| 20260504230803 | 13 | 296 | 3.2 | 9.7 | 0.00 | 0.00 | 0.00 | 56 | 1012.9 |
| 20260504230624 | 13 | 293 | 3.2 | 9.7 | 0.00 | 0.00 | 0.00 | 56 | 1013.0 |
| 20260504230403 | 13 | 297 | 1.6 | 9.7 | 0.00 | 0.00 | 0.00 | 57 | 1013.0 |
| 20260504230203 | 13 | 287 | 1.6 | 8.0 | 0.00 | 0.00 | 0.00 | 56 | 1013.1 |
| 20260504230024 | 13 | 292 | 1.6 | 8.0 | 0.00 | 0.00 | 0.00 | 58 | 1013.0 |
| 20260504225804 | 12 | 293 | 1.6 | 11.3 | 0.00 | 0.00 | 0.00 | 57 | 1013.1 |
| 20260504225603 | 12 | 291 | 1.6 | 11.3 | 0.00 | 0.00 | 0.00 | 57 | 1013.2 |
| 20260504225403 | 12 | 290 | 3.2 | 11.3 | 0.00 | 0.00 | 0.00 | 57 | 1013.2 |
| 20260504225203 | 12 | 297 | 3.2 | 11.3 | 0.00 | 0.00 | 0.00 | 57 | 1013.2 |
| 20260504225004 | 12 | 298 | 3.2 | 11.3 | 0.00 | 0.00 | 0.00 | 57 | 1013.1 |
| 20260504224803 | 12 | 304 | 4.8 | 9.7 | 0.00 | 0.00 | 0.00 | 57 | 1013.1 |
| 20260504224603 | 12 | 303 | 4.8 | 12.9 | 0.00 | 0.00 | 0.00 | 57 | 1013.2 |
| 20260504224403 | 12 | 304 | 4.8 | 12.9 | 0.00 | 0.00 | 0.00 | 57 | 1013.3 |
| 20260504224203 | 13 | 300 | 4.8 | 12.9 | 0.00 | 0.00 | 0.00 | 57 | 1013.3 |
| 20260504224003 | 13 | 300 | 3.2 | 12.9 | 0.00 | 0.00 | 0.00 | 58 | 1013.3 |
| 20260504223803 | 13 | 292 | 3.2 | 12.9 | 0.00 | 0.00 | 0.00 | 57 | 1013.3 |
| 20260504223624 | 13 | 294 | 3.2 | 9.7 | 0.00 | 0.00 | 0.00 | 56 | 1013.3 |
| 20260504223403 | 13 | 302 | 1.6 | 6.4 | 0.00 | 0.00 | 0.00 | 57 | 1013.3 |
| 20260504223203 | 13 | 300 | 1.6 | 6.4 | 0.00 | 0.00 | 0.00 | 57 | 1013.4 |
| 20260504223004 | 13 | 286 | 1.6 | 6.4 | 0.00 | 0.00 | 0.00 | 57 | 1013.4 |
| 20260504222803 | 13 | 282 | 1.6 | 8.0 | 0.00 | 0.00 | 0.00 | 57 | 1013.4 |
| 20260504222603 | 13 | 265 | 1.6 | 8.0 | 0.00 | 0.00 | 0.00 | 57 | 1013.5 |
| 20260504222404 | 13 | 223 | 1.6 | 8.0 | 0.00 | 0.00 | 0.00 | 57 | 1013.4 |
| 20260504222203 | 13 | 236 | 1.6 | 8.0 | 0.00 | 0.00 | 0.00 | 57 | 1013.4 |
| 20260504222003 | 13 | 305 | 1.6 | 12.9 | 0.00 | 0.00 | 0.00 | 56 | 1013.5 |
| 20260504221803 | 13 | 309 | 3.2 | 12.9 | 0.00 | 0.00 | 0.00 | 56 | 1013.6 |
| 20260504221603 | 13 | 306 | 3.2 | 12.9 | 0.00 | 0.00 | 0.00 | 56 | 1013.6 |
| 20260504221424 | 13 | 311 | 3.2 | 12.9 | 0.00 | 0.00 | 0.00 | 57 | 1013.6 |
| 20260504221225 | 13 | 307 | 4.8 | 12.9 | 0.00 | 0.00 | 0.00 | 56 | 1013.6 |
| 20260504221003 | 13 | 302 | 3.2 | 9.7 | 0.00 | 0.00 | 0.00 | 57 | 1013.6 |
| 20260504220804 | 13 | 301 | 3.2 | 9.7 | 0.00 | 0.00 | 0.00 | 57 | 1013.6 |
| 20260504220624 | 13 | 310 | 1.6 | 8.0 | 0.00 | 0.00 | 0.00 | 59 | 1013.5 |
| 20260504220403 | 13 | 315 | 1.6 | 9.7 | 0.00 | 0.00 | 0.00 | 58 | 1013.6 |
| 20260504220204 | 13 | 321 | 3.2 | 9.7 | 0.00 | 0.00 | 0.00 | 58 | 1013.7 |
| 20260504220024 | 13 | 321 | 3.2 | 9.7 | 0.00 | 0.00 | 0.00 | 59 | 1013.7 |
| 20260504215803 | 13 | 312 | 4.8 | 11.3 | 0.00 | 0.00 | 0.00 | 59 | 1013.7 |
| 20260504215603 | 13 | 307 | 4.8 | 11.3 | 0.00 | 0.00 | 0.00 | 59 | 1013.9 |
| 20260504215424 | 13 | 305 | 4.8 | 11.3 | 0.00 | 0.00 | 0.00 | 59 | 1013.9 |
| 20260504215204 | 13 | 301 | 4.8 | 11.3 | 0.00 | 0.00 | 0.00 | 59 | 1013.8 |
| 20260504215024 | 13 | 301 | 4.8 | 11.3 | 0.00 | 0.00 | 0.00 | 59 | 1013.8 |
| 20260504214803 | 13 | 306 | 3.2 | 9.7 | 0.00 | 0.00 | 0.00 | 60 | 1013.9 |
| 20260504214604 | 13 | 306 | 4.8 | 11.3 | 0.00 | 0.00 | 0.00 | 59 | 1013.9 |
| 20260504214424 | 13 | 304 | 4.8 | 11.3 | 0.00 | 0.00 | 0.00 | 59 | 1013.9 |
| 20260504214204 | 13 | 301 | 4.8 | 12.9 | 0.00 | 0.00 | 0.00 | 60 | 1014.0 |
| 20260504214003 | 13 | 300 | 4.8 | 12.9 | 0.00 | 0.00 | 0.00 | 60 | 1014.0 |
| 20260504213824 | 13 | 298 | 4.8 | 12.9 | 0.00 | 0.00 | 0.00 | 59 | 1014.1 |
| 20260504213604 | 13 | 294 | 4.8 | 12.9 | 0.00 | 0.00 | 0.00 | 59 | 1014.1 |
| 20260504213404 | 13 | 292 | 3.2 | 12.9 | 0.00 | 0.00 | 0.00 | 58 | 1014.1 |
| 20260504213203 | 13 | 292 | 3.2 | 11.3 | 0.00 | 0.00 | 0.00 | 59 | 1014.2 |
| 20260504213004 | 13 | 293 | 3.2 | 11.3 | 0.00 | 0.00 | 0.00 | 59 | 1014.2 |
| 20260504212803 | 13 | 296 | 4.8 | 12.9 | 0.00 | 0.00 | 0.00 | 59 | 1014.2 |
| 20260504212604 | 12 | 297 | 3.2 | 12.9 | 0.00 | 0.00 | 0.00 | 58 | 1014.3 |
| 20260504212424 | 12 | 297 | 4.8 | 12.9 | 0.00 | 0.00 | 0.00 | 58 | 1014.4 |
| 20260504212203 | 13 | 296 | 4.8 | 12.9 | 0.00 | 0.00 | 0.00 | 57 | 1014.2 |
| 20260504212003 | 13 | 297 | 3.2 | 12.9 | 0.00 | 0.00 | 0.00 | 57 | 1014.2 |
| 20260504211803 | 13 | 299 | 3.2 | 11.3 | 0.00 | 0.00 | 0.00 | 56 | 1014.3 |
| 20260504211603 | 13 | 298 | 3.2 | 11.3 | 0.00 | 0.00 | 0.00 | 57 | 1014.3 |
| 20260504211403 | 13 | 298 | 3.2 | 11.3 | 0.00 | 0.00 | 0.00 | 58 | 1014.2 |
| 20260504211204 | 13 | 298 | 3.2 | 11.3 | 0.00 | 0.00 | 0.00 | 56 | 1014.2 |
| 20260504211004 | 13 | 302 | 4.8 | 11.3 | 0.00 | 0.00 | 0.00 | 56 | 1014.3 |
| 20260504210804 | 13 | 300 | 4.8 | 11.3 | 0.00 | 0.00 | 0.00 | 56 | 1014.3 |
| 20260504210624 | 13 | 302 | 3.2 | 11.3 | 0.00 | 0.00 | 0.00 | 57 | 1014.3 |
| 20260504210424 | 13 | 301 | 4.8 | 14.5 | 0.00 | 0.00 | 0.00 | 57 | 1014.2 |
| 20260504210203 | 13 | 299 | 4.8 | 14.5 | 0.00 | 0.00 | 0.00 | 56 | 1014.3 |
| 20260504210004 | 13 | 302 | 4.8 | 14.5 | 0.00 | 0.00 | 0.00 | 58 | 1014.3 |
| 20260504205824 | 13 | 307 | 4.8 | 14.5 | 0.00 | 0.00 | 0.00 | 60 | 1014.3 |
| 20260504205603 | 12 | 308 | 4.8 | 14.5 | 0.00 | 0.00 | 0.00 | 58 | 1014.3 |
| 20260504205404 | 12 | 308 | 3.2 | 11.3 | 0.00 | 0.00 | 0.00 | 59 | 1014.4 |
| 20260504205224 | 12 | 305 | 3.2 | 11.3 | 0.00 | 0.00 | 0.00 | 58 | 1014.3 |
| 20260504205003 | 12 | 289 | 3.2 | 11.3 | 0.00 | 0.00 | 0.00 | 58 | 1014.3 |
| 20260504204804 | 12 | 283 | 3.2 | 11.3 | 0.00 | 0.00 | 0.00 | 58 | 1014.3 |
| 20260504204604 | 12 | 285 | 3.2 | 11.3 | 0.00 | 0.00 | 0.00 | 58 | 1014.3 |
| 20260504204403 | 12 | 287 | 4.8 | 11.3 | 0.00 | 0.00 | 0.00 | 58 | 1014.4 |
| 20260504204224 | 12 | 288 | 3.2 | 11.3 | 0.00 | 0.00 | 0.00 | 58 | 1014.4 |
| 20260504204025 | 12 | 291 | 3.2 | 11.3 | 0.00 | 0.00 | 0.00 | 60 | 1014.4 |
| 20260504203803 | 12 | 287 | 4.8 | 11.3 | 0.00 | 0.00 | 0.00 | 58 | 1014.4 |
| 20260504203603 | 12 | 286 | 4.8 | 11.3 | 0.00 | 0.00 | 0.00 | 58 | 1014.4 |
| 20260504203403 | 12 | 284 | 4.8 | 11.3 | 0.00 | 0.00 | 0.00 | 59 | 1014.4 |
| 20260504203203 | 12 | 286 | 4.8 | 11.3 | 0.00 | 0.00 | 0.00 | 59 | 1014.4 |
| 20260504203004 | 12 | 284 | 4.8 | 11.3 | 0.00 | 0.00 | 0.00 | 59 | 1014.4 |
| 20260504202803 | 12 | 285 | 4.8 | 9.7 | 0.00 | 0.00 | 0.00 | 59 | 1014.4 |
| 20260504202625 | 12 | 285 | 4.8 | 9.7 | 0.00 | 0.00 | 0.00 | 59 | 1014.4 |
| 20260504202403 | 12 | 286 | 4.8 | 9.7 | 0.00 | 0.00 | 0.00 | 58 | 1014.4 |
| 20260504202204 | 12 | 283 | 3.2 | 9.7 | 0.00 | 0.00 | 0.00 | 57 | 1014.4 |
| 20260504202003 | 12 | 290 | 3.2 | 9.7 | 0.00 | 0.00 | 0.00 | 58 | 1014.4 |
| 20260504201804 | 12 | 291 | 4.8 | 12.9 | 0.00 | 0.00 | 0.00 | 57 | 1014.3 |
| 20260504201604 | 12 | 290 | 3.2 | 12.9 | 0.00 | 0.00 | 0.00 | 57 | 1014.3 |
| 20260504201404 | 12 | 285 | 3.2 | 12.9 | 0.00 | 0.00 | 0.00 | 58 | 1014.3 |
| 20260504201203 | 12 | 288 | 3.2 | 12.9 | 0.00 | 0.00 | 0.00 | 57 | 1014.4 |
| 20260504201003 | 12 | 287 | 3.2 | 12.9 | 0.00 | 0.00 | 0.00 | 57 | 1014.5 |
| 20260504200804 | 12 | 282 | 3.2 | 9.7 | 0.00 | 0.00 | 0.00 | 56 | 1014.4 |
| 20260504200625 | 12 | 282 | 1.6 | 8.0 | 0.00 | 0.00 | 0.00 | 56 | 1014.4 |
| 20260504200424 | 12 | 287 | 1.6 | 8.0 | 0.00 | 0.00 | 0.00 | 56 | 1014.5 |
| 20260504200203 | 12 | 286 | 1.6 | 11.3 | 0.00 | 0.00 | 0.00 | 55 | 1014.5 |
| 20260504200004 | 12 | 284 | 1.6 | 12.9 | 0.00 | 0.00 | 0.00 | 55 | 1014.5 |
| 20260504195803 | 12 | 287 | 1.6 | 12.9 | 0.00 | 0.00 | 0.00 | 57 | 1014.4 |
| 20260504195624 | 12 | 287 | 1.6 | 12.9 | 0.00 | 0.00 | 0.00 | 55 | 1014.5 |
| 20260504195404 | 12 | 285 | 1.6 | 12.9 | 0.00 | 0.00 | 0.00 | 54 | 1014.5 |
| 20260504195203 | 13 | 294 | 3.2 | 12.9 | 0.00 | 0.00 | 0.00 | 56 | 1014.4 |
| 20260504195024 | 13 | 303 | 1.6 | 8.0 | 0.00 | 0.00 | 0.00 | 57 | 1014.4 |
| 20260504194804 | 13 | 313 | 1.6 | 8.0 | 0.00 | 0.00 | 0.00 | 59 | 1014.4 |
| 20260504194604 | 12 | 325 | 1.6 | 8.0 | 0.00 | 0.00 | 0.00 | 57 | 1014.4 |
| 20260504194403 | 12 | 327 | 1.6 | 8.0 | 0.00 | 0.00 | 0.00 | 59 | 1014.4 |
| 20260504194203 | 12 | 313 | 1.6 | 8.0 | 0.00 | 0.00 | 0.00 | 59 | 1014.4 |
| 20260504194024 | 12 | 297 | 1.6 | 9.7 | 0.00 | 0.00 | 0.00 | 59 | 1014.5 |
| 20260504193803 | 12 | 296 | 3.2 | 9.7 | 0.00 | 0.00 | 0.00 | 60 | 1014.6 |
| 20260504193603 | 12 | 290 | 3.2 | 9.7 | 0.00 | 0.00 | 0.00 | 61 | 1014.6 |
| 20260504193404 | 12 | 291 | 3.2 | 9.7 | 0.00 | 0.00 | 0.00 | 60 | 1014.6 |
| 20260504193203 | 12 | 292 | 3.2 | 9.7 | 0.00 | 0.00 | 0.00 | 60 | 1014.5 |
| 20260504193003 | 12 | 293 | 3.2 | 9.7 | 0.00 | 0.00 | 0.00 | 60 | 1014.5 |
| 20260504192803 | 12 | 286 | 3.2 | 11.3 | 0.00 | 0.00 | 0.00 | 60 | 1014.5 |
| 20260504192604 | 12 | 286 | 3.2 | 11.3 | 0.00 | 0.00 | 0.00 | 61 | 1014.5 |
| 20260504192424 | 12 | 280 | 3.2 | 11.3 | 0.00 | 0.00 | 0.00 | 59 | 1014.5 |
| 20260504192204 | 12 | 275 | 3.2 | 11.3 | 0.00 | 0.00 | 0.00 | 60 | 1014.6 |
| 20260504192003 | 12 | 271 | 3.2 | 16.1 | 0.00 | 0.00 | 0.00 | 62 | 1014.7 |
| 20260504191803 | 12 | 276 | 3.2 | 16.1 | 0.00 | 0.00 | 0.00 | 62 | 1014.8 |
| 20260504191604 | 11 | 264 | 3.2 | 16.1 | 0.00 | 0.00 | 0.00 | 62 | 1014.8 |
| 20260504191403 | 11 | 264 | 3.2 | 16.1 | 0.00 | 0.00 | 0.00 | 60 | 1014.7 |
| 20260504191204 | 12 | 269 | 3.2 | 16.1 | 0.00 | 0.00 | 0.00 | 61 | 1014.7 |
| 20260504191003 | 12 | 272 | 3.2 | 14.5 | 0.00 | 0.00 | 0.00 | 61 | 1014.6 |
| 20260504190825 | 12 | 272 | 3.2 | 9.7 | 0.00 | 0.00 | 0.00 | 61 | 1014.6 |
| 20260504190603 | 11 | 287 | 1.6 | 9.7 | 0.00 | 0.00 | 0.00 | 62 | 1014.6 |
| 20260504190404 | 11 | 287 | 1.6 | 9.7 | 0.00 | 0.00 | 0.00 | 61 | 1014.5 |
| 20260504190204 | 11 | 296 | 1.6 | 9.7 | 0.00 | 0.00 | 0.00 | 63 | 1014.5 |
| 20260504190003 | 11 | 310 | 1.6 | 9.7 | 0.00 | 0.00 | 0.00 | 62 | 1014.5 |
| 20260504185803 | 11 | 303 | 3.2 | 16.1 | 0.00 | 0.00 | 0.00 | 63 | 1014.5 |
| 20260504185625 | 11 | 302 | 3.2 | 16.1 | 0.00 | 0.00 | 0.00 | 63 | 1014.5 |
| 20260504185424 | 11 | 299 | 4.8 | 16.1 | 0.00 | 0.00 | 0.00 | 62 | 1014.4 |
| 20260504185225 | 11 | 298 | 6.4 | 16.1 | 0.00 | 0.00 | 0.00 | 62 | 1014.4 |
| 20260504185003 | 11 | 298 | 6.4 | 16.1 | 0.00 | 0.00 | 0.00 | 61 | 1014.5 |
| 20260504184804 | 12 | 295 | 4.8 | 14.5 | 0.00 | 0.00 | 0.00 | 62 | 1014.4 |
| 20260504184603 | 12 | 293 | 3.2 | 14.5 | 0.00 | 0.00 | 0.00 | 62 | 1014.4 |
| 20260504184403 | 12 | 290 | 1.6 | 9.7 | 0.00 | 0.00 | 0.00 | 62 | 1014.4 |
| 20260504184203 | 12 | 284 | 1.6 | 9.7 | 0.00 | 0.00 | 0.00 | 62 | 1014.4 |
| 20260504184003 | 12 | 267 | 1.6 | 9.7 | 0.00 | 0.00 | 0.00 | 60 | 1014.4 |
| 20260504183803 | 12 | 289 | 1.6 | 8.0 | 0.00 | 0.00 | 0.00 | 60 | 1014.4 |
| 20260504183604 | 12 | 290 | 1.6 | 6.4 | 0.00 | 0.00 | 0.00 | 60 | 1014.6 |
| 20260504183403 | 12 | 307 | 3.2 | 9.7 | 0.00 | 0.00 | 0.00 | 60 | 1014.6 |
| 20260504183204 | 12 | 315 | 3.2 | 9.7 | 0.00 | 0.00 | 0.00 | 60 | 1014.6 |
| 20260504183003 | 12 | 311 | 3.2 | 9.7 | 0.00 | 0.00 | 0.00 | 60 | 1014.6 |
| 20260504182803 | 12 | 308 | 3.2 | 9.7 | 0.00 | 0.00 | 0.00 | 61 | 1014.6 |
| 20260504182604 | 12 | 309 | 1.6 | 9.7 | 0.00 | 0.00 | 0.00 | 60 | 1014.6 |
| 20260504182424 | 12 | 301 | 3.2 | 11.3 | 0.00 | 0.00 | 0.00 | 62 | 1014.5 |
| 20260504182204 | 12 | 290 | 3.2 | 11.3 | 0.00 | 0.00 | 0.00 | 61 | 1014.5 |
| 20260504182004 | 12 | 294 | 3.2 | 11.3 | 0.00 | 0.00 | 0.00 | 61 | 1014.6 |
| 20260504181804 | 12 | 295 | 3.2 | 11.3 | 0.00 | 0.00 | 0.00 | 62 | 1014.6 |
| 20260504181624 | 12 | 296 | 3.2 | 11.3 | 0.00 | 0.00 | 0.00 | 62 | 1014.5 |
| 20260504181404 | 12 | 299 | 1.6 | 9.7 | 0.00 | 0.00 | 0.00 | 63 | 1014.5 |
| 20260504181203 | 12 | 293 | 1.6 | 9.7 | 0.00 | 0.00 | 0.00 | 65 | 1014.5 |
| 20260504181003 | 11 | 298 | 1.6 | 6.4 | 0.00 | 0.00 | 0.00 | 63 | 1014.5 |
| 20260504180803 | 11 | 297 | 1.6 | 6.4 | 0.00 | 0.00 | 0.00 | 63 | 1014.5 |
| 20260504180624 | 11 | 297 | 1.6 | 6.4 | 0.00 | 0.00 | 0.00 | 63 | 1014.4 |
| 20260504180403 | 11 | 293 | 1.6 | 6.4 | 0.00 | 0.00 | 0.00 | 63 | 1014.5 |
| 20260504180204 | 11 | 282 | 0.0 | 3.2 | 0.00 | 0.00 | 0.00 | 64 | 1014.5 |
| 20260504180003 | 11 | 296 | 0.0 | 3.2 | 0.00 | 0.00 | 0.00 | 65 | 1014.5 |
| 20260504175803 | 11 | 0 | 0.0 | 0.0 | 0.00 | 0.00 | 0.00 | 66 | 1014.5 |
| 20260504175604 | 11 | 335 | 0.0 | 1.6 | 0.00 | 0.00 | 0.00 | 65 | 1014.5 |
| 20260504175403 | 11 | 219 | 0.0 | 6.4 | 0.00 | 0.00 | 0.00 | 66 | 1014.4 |
| 20260504175224 | 11 | 236 | 0.0 | 8.0 | 0.00 | 0.00 | 0.00 | 66 | 1014.4 |
| 20260504175003 | 11 | 236 | 0.0 | 8.0 | 0.00 | 0.00 | 0.00 | 68 | 1014.5 |
| 20260504174825 | 11 | 237 | 1.6 | 8.0 | 0.00 | 0.00 | 0.00 | 69 | 1014.4 |
| 20260504174603 | 11 | 253 | 1.6 | 11.3 | 0.00 | 0.00 | 0.00 | 69 | 1014.3 |
| 20260504174403 | 11 | 270 | 3.2 | 11.3 | 0.00 | 0.00 | 0.00 | 70 | 1014.3 |
| 20260504174203 | 10 | 281 | 3.2 | 11.3 | 0.00 | 0.00 | 0.00 | 72 | 1014.3 |
| 20260504174004 | 10 | 287 | 3.2 | 11.3 | 0.00 | 0.00 | 0.00 | 71 | 1014.2 |
| 20260504173803 | 10 | 290 | 3.2 | 11.3 | 0.00 | 0.00 | 0.00 | 71 | 1014.2 |
| 20260504173603 | 10 | 297 | 3.2 | 11.3 | 0.00 | 0.00 | 0.00 | 71 | 1014.2 |
| 20260504173404 | 10 | 296 | 1.6 | 11.3 | 0.00 | 0.00 | 0.00 | 71 | 1014.2 |
| 20260504173205 | 10 | 303 | 1.6 | 11.3 | 0.00 | 0.00 | 0.00 | 70 | 1014.2 |
| 20260504173003 | 10 | 287 | 0.0 | 4.8 | 0.00 | 0.00 | 0.00 | 70 | 1014.1 |
| 20260504172803 | 10 | 292 | 0.0 | 6.4 | 0.00 | 0.00 | 0.00 | 70 | 1014.1 |
| 20260504172603 | 10 | 295 | 1.6 | 8.0 | 0.00 | 0.00 | 0.00 | 71 | 1014.2 |
| 20260504172403 | 10 | 294 | 1.6 | 8.0 | 0.00 | 0.00 | 0.00 | 70 | 1014.2 |
| 20260504172226 | 10 | 292 | 1.6 | 8.0 | 0.00 | 0.00 | 0.00 | 70 | 1014.2 |
| 20260504172003 | 10 | 292 | 1.6 | 8.0 | 0.00 | 0.00 | 0.00 | 70 | 1014.2 |
| 20260504171804 | 10 | 292 | 1.6 | 8.0 | 0.00 | 0.00 | 0.00 | 70 | 1014.2 |
| 20260504171603 | 10 | 254 | 1.6 | 8.0 | 0.00 | 0.00 | 0.00 | 70 | 1014.2 |
| 20260504171405 | 11 | 222 | 1.6 | 8.0 | 0.00 | 0.00 | 0.00 | 69 | 1014.0 |
| 20260504171203 | 11 | 124 | 0.0 | 6.4 | 0.00 | 0.00 | 0.00 | 69 | 1013.9 |
| 20260504171004 | 10 | 124 | 0.0 | 6.4 | 0.00 | 0.00 | 0.00 | 68 | 1013.9 |
| 20260504170804 | 10 | 131 | 0.0 | 6.4 | 0.00 | 0.00 | 0.00 | 69 | 1014.0 |
| 20260504170624 | 10 | 124 | 0.0 | 6.4 | 0.00 | 0.00 | 0.00 | 69 | 1014.0 |
| 20260504170424 | 10 | 109 | 0.0 | 4.8 | 0.00 | 0.00 | 0.00 | 70 | 1014.0 |
| 20260504170203 | 10 | 114 | 0.0 | 4.8 | 0.00 | 0.00 | 0.00 | 71 | 1013.9 |
| 20260504160403 | 9 | 273 | 1.6 | 4.8 | 0.00 | 0.00 | 0.00 | 78 | 1013.6 |
| 20260504160203 | 8 | 270 | 1.6 | 4.8 | 0.00 | 0.00 | 0.00 | 78 | 1013.6 |
| 20260504151024 | 8 | 0 | 0.0 | 0.0 | 0.00 | 0.00 | 0.00 | 82 | 1013.5 |
| 20260504150803 | 8 | 0 | 0.0 | 0.0 | 0.00 | 0.00 | 0.00 | 82 | 1013.5 |
| 20260504150603 | 8 | 0 | 0.0 | 0.0 | 0.00 | 0.00 | 0.00 | 83 | 1013.5 |
| 20260504150424 | 8 | 0 | 0.0 | 0.0 | 0.00 | 0.00 | 0.00 | 83 | 1013.4 |
| 20260504150203 | 8 | 0 | 0.0 | 0.0 | 0.00 | 0.00 | 0.00 | 85 | 1013.4 |
| 20260504141203 | 8 | 0 | 0.0 | 0.0 | 0.00 | 0.00 | 0.00 | 89 | 1013.2 |
| 20260504141024 | 8 | 0 | 0.0 | 0.0 | 0.00 | 0.00 | 0.00 | 89 | 1013.2 |
| 20260504140803 | 8 | 0 | 0.0 | 0.0 | 0.00 | 0.00 | 0.00 | 90 | 1013.3 |
| 20260504140603 | 8 | 0 | 0.0 | 0.0 | 0.00 | 0.00 | 0.00 | 90 | 1013.3 |
| 20260504140403 | 8 | 0 | 0.0 | 0.0 | 0.00 | 0.00 | 0.00 | 90 | 1013.2 |
| 20260504140203 | 8 | 0 | 0.0 | 0.0 | 0.00 | 0.00 | 0.00 | 90 | 1013.2 |
| 20260504130803 | 7 | 296 | 1.6 | 6.4 | 0.00 | 0.00 | 0.00 | 87 | 1013.1 |
| 20260504130603 | 7 | 290 | 1.6 | 8.0 | 0.00 | 0.00 | 0.00 | 87 | 1013.0 |
| 20260504130403 | 7 | 287 | 1.6 | 8.0 | 0.00 | 0.00 | 0.00 | 87 | 1012.9 |
| 20260504130204 | 7 | 291 | 1.6 | 8.0 | 0.00 | 0.00 | 0.00 | 87 | 1013.0 |
| 20260504120203 | 7 | 294 | 1.6 | 6.4 | 0.00 | 0.00 | 0.00 | 90 | 1012.7 |
| 20260504110603 | 8 | 285 | 3.2 | 9.7 | 0.00 | 0.00 | 0.00 | 91 | 1012.2 |
| 20260504110403 | 8 | 286 | 1.6 | 9.7 | 0.00 | 0.00 | 0.00 | 91 | 1012.1 |
| 20260504110203 | 8 | 288 | 1.6 | 8.0 | 0.00 | 0.00 | 0.00 | 92 | 1012.1 |
| 20260504100403 | 8 | 314 | 0.0 | 4.8 | 0.00 | 0.00 | 0.00 | 91 | 1012.1 |
| 20260504100204 | 8 | 313 | 0.0 | 4.8 | 0.00 | 0.00 | 0.00 | 91 | 1012.0 |
| 20260504082003 | 8 | 0 | 0.0 | 0.0 | 0.00 | 0.00 | 0.00 | 88 | 1013.4 |
| 20260504081804 | 8 | 0 | 0.0 | 0.0 | 0.00 | 0.00 | 0.00 | 88 | 1013.6 |
| 20260504081603 | 8 | 0 | 0.0 | 0.0 | 0.00 | 0.00 | 0.00 | 88 | 1013.4 |
| 20260504081403 | 8 | 0 | 0.0 | 0.0 | 0.00 | 0.00 | 0.00 | 88 | 1013.3 |
| 20260504081203 | 8 | 0 | 0.0 | 0.0 | 0.00 | 0.00 | 0.00 | 88 | 1013.3 |
| 20260504081003 | 8 | 0 | 0.0 | 0.0 | 0.00 | 0.00 | 0.00 | 88 | 1013.3 |
| 20260504080803 | 8 | 283 | 0.0 | 6.4 | 0.00 | 0.00 | 0.00 | 88 | 1013.3 |
| 20260504080603 | 8 | 286 | 0.0 | 6.4 | 0.00 | 0.00 | 0.00 | 88 | 1013.2 |
| 20260504080424 | 8 | 287 | 1.6 | 6.4 | 0.00 | 0.00 | 0.00 | 88 | 1013.4 |
| 20260504080224 | 8 | 284 | 1.6 | 8.0 | 0.00 | 0.00 | 0.00 | 88 | 1013.8 |
| 20260504070403 | 9 | 335 | 0.0 | 3.2 | 0.00 | 0.00 | 0.00 | 84 | 1012.7 |
| 20260504070203 | 9 | 324 | 0.0 | 3.2 | 0.00 | 0.00 | 0.00 | 84 | 1012.8 |
| 20260504060203 | 10 | 0 | 0.0 | 0.0 | 0.00 | 0.00 | 0.00 | 80 | 1011.9 |
| 20260504050603 | 10 | 223 | 0.0 | 3.2 | 0.00 | 0.00 | 0.00 | 82 | 1012.3 |
| 20260504050424 | 10 | 223 | 0.0 | 3.2 | 0.00 | 0.00 | 0.00 | 82 | 1012.3 |
| 20260504050203 | 10 | 0 | 0.0 | 0.0 | 0.00 | 0.00 | 0.00 | 82 | 1012.4 |
| 20260504050003 | 10 | 305 | 0.0 | 6.4 | 0.00 | 0.00 | 0.00 | 82 | 1012.5 |
| 20260504045803 | 10 | 303 | 0.0 | 6.4 | 0.00 | 0.00 | 0.00 | 82 | 1012.6 |
| 20260504045603 | 10 | 303 | 0.0 | 6.4 | 0.00 | 0.00 | 0.00 | 82 | 1012.5 |
| 20260504045403 | 10 | 303 | 0.0 | 6.4 | 0.00 | 0.00 | 0.00 | 81 | 1012.4 |
| 20260504045224 | 10 | 303 | 0.0 | 6.4 | 0.00 | 0.00 | 0.00 | 81 | 1012.5 |
| 20260504045003 | 10 | 296 | 0.0 | 3.2 | 0.00 | 0.00 | 0.00 | 81 | 1012.4 |
| 20260504044803 | 10 | 277 | 0.0 | 1.6 | 0.00 | 0.00 | 0.00 | 81 | 1012.4 |
| 20260504044624 | 10 | 0 | 0.0 | 0.0 | 0.00 | 0.00 | 0.00 | 81 | 1012.5 |
| 20260504044403 | 10 | 0 | 0.0 | 0.0 | 0.00 | 0.00 | 0.00 | 81 | 1012.5 |
| 20260504044203 | 10 | 0 | 0.0 | 0.0 | 0.00 | 0.00 | 0.00 | 81 | 1012.4 |
| 20260504044003 | 10 | 0 | 0.0 | 0.0 | 0.00 | 0.00 | 0.00 | 81 | 1012.4 |
| 20260504043804 | 10 | 0 | 0.0 | 0.0 | 0.00 | 0.00 | 0.00 | 80 | 1012.4 |
| 20260504043603 | 10 | 0 | 0.0 | 0.0 | 0.00 | 0.00 | 0.00 | 80 | 1012.3 |
| 20260504043404 | 10 | 0 | 0.0 | 0.0 | 0.00 | 0.00 | 0.00 | 80 | 1012.3 |
| 20260504043204 | 10 | 0 | 0.0 | 0.0 | 0.00 | 0.00 | 0.00 | 80 | 1012.3 |
| 20260504043024 | 10 | 0 | 0.0 | 0.0 | 0.00 | 0.00 | 0.00 | 81 | 1012.3 |
| 20260504042825 | 10 | 0 | 0.0 | 0.0 | 0.00 | 0.00 | 0.00 | 80 | 1012.2 |
| 20260504042603 | 10 | 0 | 0.0 | 0.0 | 0.00 | 0.00 | 0.00 | 80 | 1012.2 |
| 20260504042404 | 10 | 0 | 0.0 | 0.0 | 0.00 | 0.00 | 0.00 | 80 | 1012.2 |
| 20260504042203 | 10 | 315 | 0.0 | 3.2 | 0.00 | 0.00 | 0.00 | 80 | 1012.2 |
| 20260504042003 | 11 | 297 | 0.0 | 3.2 | 0.00 | 0.00 | 0.00 | 80 | 1012.2 |
| 20260504041803 | 11 | 297 | 0.0 | 3.2 | 0.00 | 0.00 | 0.00 | 80 | 1012.2 |
| 20260504041603 | 11 | 286 | 0.0 | 4.8 | 0.00 | 0.00 | 0.00 | 80 | 1012.1 |
| 20260504041404 | 11 | 284 | 1.6 | 4.8 | 0.00 | 0.00 | 0.00 | 80 | 1012.1 |
| 20260504041203 | 11 | 278 | 0.0 | 4.8 | 0.00 | 0.00 | 0.00 | 80 | 1012.1 |
| 20260504041024 | 11 | 278 | 0.0 | 4.8 | 0.00 | 0.00 | 0.00 | 80 | 1012.1 |
| 20260504040803 | 11 | 278 | 0.0 | 4.8 | 0.00 | 0.00 | 0.00 | 79 | 1012.2 |
| 20260504040603 | 11 | 278 | 0.0 | 4.8 | 0.00 | 0.00 | 0.00 | 79 | 1012.2 |
| 20260504040404 | 11 | 0 | 0.0 | 0.0 | 0.00 | 0.00 | 0.00 | 80 | 1012.1 |
| 20260504040204 | 11 | 320 | 0.0 | 4.8 | 0.00 | 0.00 | 0.00 | 80 | 1012.1 |
| 20260504040003 | 11 | 306 | 0.0 | 4.8 | 0.00 | 0.00 | 0.00 | 80 | 1011.9 |
| 20260504035803 | 11 | 305 | 0.0 | 4.8 | 0.00 | 0.00 | 0.00 | 79 | 1011.9 |
| 20260504035603 | 11 | 304 | 0.0 | 4.8 | 0.00 | 0.00 | 0.00 | 79 | 1011.9 |
| 20260504035424 | 11 | 300 | 1.6 | 4.8 | 0.00 | 0.00 | 0.00 | 79 | 1012.0 |
| 20260504035203 | 11 | 291 | 1.6 | 6.4 | 0.00 | 0.00 | 0.00 | 79 | 1012.0 |
| 20260504035003 | 11 | 293 | 1.6 | 6.4 | 0.00 | 0.00 | 0.00 | 79 | 1012.0 |
| 20260504034824 | 11 | 296 | 1.6 | 6.4 | 0.00 | 0.00 | 0.00 | 79 | 1011.9 |
| 20260504034603 | 11 | 296 | 1.6 | 6.4 | 0.00 | 0.00 | 0.00 | 79 | 1011.9 |
| 20260504034403 | 11 | 298 | 1.6 | 6.4 | 0.00 | 0.00 | 0.00 | 79 | 1011.8 |
| 20260504034225 | 11 | 302 | 1.6 | 6.4 | 0.00 | 0.00 | 0.00 | 78 | 1011.9 |
| 20260504034003 | 11 | 312 | 0.0 | 6.4 | 0.00 | 0.00 | 0.00 | 78 | 1011.9 |
| 20260504033803 | 11 | 293 | 0.0 | 4.8 | 0.00 | 0.00 | 0.00 | 79 | 1011.9 |
| 20260504033624 | 11 | 294 | 0.0 | 4.8 | 0.00 | 0.00 | 0.00 | 79 | 1011.8 |
| 20260504033424 | 11 | 296 | 0.0 | 4.8 | 0.00 | 0.00 | 0.00 | 78 | 1011.8 |
| 20260504033203 | 11 | 296 | 0.0 | 4.8 | 0.00 | 0.00 | 0.00 | 78 | 1011.8 |
| 20260504033003 | 11 | 304 | 1.6 | 4.8 | 0.00 | 0.00 | 0.00 | 78 | 1011.8 |
| 20260504032804 | 11 | 295 | 1.6 | 8.0 | 0.00 | 0.00 | 0.00 | 78 | 1011.8 |
| 20260504032625 | 11 | 302 | 1.6 | 8.0 | 0.00 | 0.00 | 0.00 | 78 | 1011.8 |